Weather History for Corpus Christi, TX

Change the Weather History Date:

Wednesday, May 21, 2014

  Actual Average Record
Temperature  
Mean Temperature 80 °F 79 °F  
Max Temperature 88 °F 87 °F 98 °F (1955)
Min Temperature 72 °F 71 °F 59 °F (1986)
Degree Days  
Heating Degree Days 0 0  
Month to date heating degree days 0 0  
Since 1 July heating degree days 1145 898  
Cooling Degree Days 15 14  
Month to date cooling degree days 194 262  
Year to date cooling degree days 640 690  
Growing Degree Days 30 (Base 50)    
Moisture  
Dew Point 69 °F    
Average Humidity 72    
Maximum Humidity 93    
Minimum Humidity 51    
Precipitation  
Precipitation 0.00 in 0.11 in 5.57 in (1941)
Month to date precipitation 3.81 1.97  
Year to date precipitation 6.87 9.17  
Snow  
Snow 0.00 in - - ()
Month to date snowfall 0.0  
Since 1 July snowfall T  
Snow Depth 0.00 in    
Sea Level Pressure  
Sea Level Pressure 30.03 in    
Wind  
Wind Speed 18 mph (SE)    
Max Wind Speed 26 mph    
Max Gust Speed 31 mph    
Visibility 10 miles    
Events      
T = Trace of Precipitation, MM = Missing Value Source: NWS Daily Summary

Daily Weather History Graph

Daily Weather History Graph

Search for Another Location

Airport:

Trip Planner

Search our weather history database for the weather conditions in past years. The results will help you decide how hot, cold, wet, or windy it might be!

Date:

Astronomy

May. 21, 2014 Rise Set
Actual Time 6:37 AM CDT 8:15 PM CDT
Civil Twilight 6:12 AM CDT 8:41 PM CDT
Nautical Twilight 5:41 AM CDT 9:12 PM CDT
Astronomical Twilight 5:08 AM CDT 9:45 PM CDT
Moon 1:42 AM CDT (5/21) 1:35 PM CDT (5/21)
Length of Visible Light 14h 29m
Length of Day
13h 38m
Waning Gibbous, 48% of the Moon is Illuminated
May 21
Waning Gibbous
May 28
New
Jun 5
First Quarter
Jun 12
Full
Jun 19
Last Quarter

Hourly Weather History & Observations

Time (CDT) Temp. Heat Index Dew Point Humidity Pressure Visibility Wind Dir Wind Speed Gust Speed Precip Events Conditions
12:38 AM 75.0 °F - 70.0 °F 84% 30.04 in 10.0 mi SSE 15.0 mph - N/A   Overcast
12:51 AM 75.0 °F - 69.1 °F 82% 30.04 in 10.0 mi SSE 17.3 mph - N/A   Mostly Cloudy
1:51 AM 75.2 °F - 68.0 °F 78% 30.02 in 10.0 mi SSE 15.0 mph - N/A   Mostly Cloudy
2:23 AM 73.9 °F - 69.1 °F 85% 30.02 in 10.0 mi SSE 15.0 mph - N/A   Scattered Clouds
2:51 AM 73.9 °F - 69.1 °F 85% 30.01 in 10.0 mi SSE 12.7 mph - N/A   Scattered Clouds
3:13 AM 73.9 °F - 69.1 °F 85% 30.01 in 10.0 mi SSE 12.7 mph - N/A   Mostly Cloudy
3:51 AM 73.0 °F - 69.1 °F 87% 30.01 in 10.0 mi SSE 15.0 mph - N/A   Mostly Cloudy
4:51 AM 73.9 °F - 69.1 °F 85% 30.01 in 10.0 mi SSE 13.8 mph - N/A   Scattered Clouds
5:51 AM 73.0 °F - 69.1 °F 87% 30.01 in 10.0 mi SSE 11.5 mph - N/A   Partly Cloudy
6:51 AM 72.0 °F - 69.1 °F 91% 30.02 in 9.0 mi SSE 9.2 mph - N/A   Partly Cloudy
7:51 AM 73.9 °F - 70.0 °F 87% 30.04 in 10.0 mi SSE 11.5 mph - N/A   Partly Cloudy
7:59 AM 73.9 °F - 70.0 °F 87% 30.04 in 10.0 mi SSE 13.8 mph - N/A   Mostly Cloudy
8:51 AM 78.1 °F - 70.0 °F 76% 30.05 in 10.0 mi SSE 19.6 mph - N/A   Mostly Cloudy
9:51 AM 79.0 °F - 70.0 °F 74% 30.06 in 10.0 mi SSE 19.6 mph - N/A   Mostly Cloudy
10:51 AM 81.0 °F 84.4 °F 70.0 °F 69% 30.07 in 10.0 mi SSE 18.4 mph - N/A   Overcast
11:04 AM 81.0 °F 84.4 °F 70.0 °F 69% 30.07 in 10.0 mi SSE 20.7 mph - N/A   Overcast
11:51 AM 82.4 °F 86.3 °F 69.8 °F 66% 30.07 in 10.0 mi SSE 18.4 mph - N/A   Mostly Cloudy
12:51 PM 86.0 °F 90.4 °F 69.8 °F 58% 30.07 in 10.0 mi SE 18.4 mph 28.8 mph N/A   Mostly Cloudy
1:51 PM 86.0 °F 88.8 °F 66.9 °F 53% 30.05 in 10.0 mi SSE 19.6 mph 26.5 mph N/A   Scattered Clouds
2:51 PM 87.1 °F 91.3 °F 69.1 °F 55% 30.03 in 10.0 mi SE 23.0 mph 27.6 mph N/A   Scattered Clouds
3:51 PM 86.0 °F 89.4 °F 68.0 °F 55% 30.02 in 10.0 mi ESE 21.9 mph - N/A   Scattered Clouds
4:51 PM 84.9 °F 88.8 °F 69.1 °F 59% 30.01 in 10.0 mi SE 20.7 mph 31.1 mph N/A   Scattered Clouds
5:51 PM 82.9 °F 86.5 °F 69.1 °F 63% 30.00 in 10.0 mi SE 26.5 mph - N/A   Scattered Clouds
6:18 PM 82.9 °F 87.0 °F 70.0 °F 65% 30.00 in 10.0 mi ESE 21.9 mph - N/A   Mostly Cloudy
6:51 PM 80.1 °F 82.9 °F 69.1 °F 69% 29.99 in 10.0 mi SE 23.0 mph - N/A   Mostly Cloudy
7:24 PM 79.0 °F - 69.1 °F 72% 29.99 in 10.0 mi ESE 19.6 mph - N/A   Scattered Clouds
7:47 PM 78.8 °F - 69.8 °F 74% 29.99 in 10.0 mi SE 19.6 mph - N/A   Mostly Cloudy
7:51 PM 78.1 °F - 70.0 °F 76% 29.99 in 10.0 mi ESE 19.6 mph - N/A   Mostly Cloudy
8:51 PM 77.0 °F - 70.0 °F 79% 30.00 in 10.0 mi SE 18.4 mph - N/A   Overcast
9:51 PM 77.0 °F - 70.0 °F 79% 30.02 in 10.0 mi SE 17.3 mph - N/A   Overcast
10:51 PM 77.0 °F - 70.0 °F 79% 30.04 in 10.0 mi SE 18.4 mph - N/A   Overcast
11:46 PM 75.2 °F - 71.6 °F 89% 30.05 in 10.0 mi SE 16.1 mph - N/A   Overcast
11:51 PM 75.9 °F - 71.1 °F 85% 30.05 in 10.0 mi SE 16.1 mph - N/A   Overcast